"Pseudo-MPEC" for P10HMQ6

Created 2018 Jun 17 9:18:18 UT using Find_Orb

Click here for an explanation of pseudo-MPECs

 
 Astrometry: 
     P10HMQ6  C2018 06 13sFAstrometry+SILCt0Lb`5s9O1I[fG/^-gjh\7\f1\qd+CbY-4vF51
     P10HMQ6  C2018 06 13HIoaS[0hG1w`reP`!hwgSY_=?\YxDmtlqD-J%q8\6@TUqnV9EDl%F51
     P10HMQ6  C2018 06 13]cx?CP=6K/-Ip1(AJredacted;.#:)1oK9Ko+*Rn\Lk3i(^Sia#UF51
     P10HMQ6  C2018 06 13iE%QsZ4h4nmMsc2Xo[:uLMe.erRLu-otseef!w_5e'J3tQ,]dd-yF51
     P10HMQ6  C2018 06 14Y(K,G4L?fRoMHC9#@R8_YbrSnYk2wR1VZ6=\JiUjAJ=CnVFh._(AJ04
     P10HMQ6  C2018 06 14!Tuog@'er8u,)lhS[DDWH;Tpr!9Z:uVoOQeqqF6C91OB$rONEOCPJ04

Station data:
(F51) Pan-STARRS 1, Haleakala  (N20.707235 W156.255910)  US/Hawaii.
   Observers N. Primak, A. Schultz, S. Watters, J. Thiel, T. Goggia. Measurer
   PS1 Science Consortium. 1.8-m Ritchey-Chrétien + CCD.
(J04) ESA Optical Ground Station, Tenerife  (N28.300924 W16.511830)  Canary
   Islands (Spain).  Observer D. Abreu. Measurers M. Micheli, D. Koschny, E.
   Schwab, M. Busch, A. Knöfel. 1.0-m f/4.4 reflector + CCD.

Orbital elements:  P10HMQ6
   Perihelion 2018 Aug 21.009924 +/- 65.2 TT =  0:14:17 (JD 2458351.509924)
Epoch 2018 Jun 14.0 TT = JDT 2458283.5   Earth MOID: 0.7089   AutoNEOCP
M 344.37289 +/- 28                  (J2000 ecliptic)
n   0.22977684 +/- 0.206            Peri.  277.32770 +/- 80
a   2.63996727 +/- 1.66             Node    41.39869 +/- 29
e   0.3476484 +/- 0.259             Incl.    0.83632 +/- 0.21
P   4.29                   H 18.4   G  0.15   U 11.7  SR
q 1.72218666 +/- 0.531    Q 3.55774788 +/- 49.5
From 6 observations 2018 June 13-14 (13.7 hr); mean residual 0".10
Residuals in arcseconds: 
180613 F51  .05+  .00     180613 F51  .01-  .02-    180614 J04  .20-  .08+    
180613 F51  .03+  .02-    180613 F51  .08-  .05+    180614 J04  .20+  .09-    

Ephemerides (geocentric):
Date (UTC) HH   RA              Dec         delta   r     elong  mag " sig PA
---- -- -- --  -------------   -----------  ------ ------ -----  --- ---- ---
2018 06 17 09  20 52 17.059   -19 07 08.18  .91845 1.7918 135.7 20.5 80.9 171
2018 06 17 10  20 52 18.496   -19 07 05.03  .91812 1.7917 135.7 20.5 82.7 171
2018 06 17 11  20 52 19.929   -19 07 01.90  .91779 1.7917 135.7 20.5 84.6 171
2018 06 17 12  20 52 21.359   -19 06 58.78  .91746 1.7916 135.8 20.5 86.5 171
2018 06 17 13  20 52 22.786   -19 06 55.67  .91712 1.7915 135.8 20.5 88.4 171
2018 06 17 14  20 52 24.210   -19 06 52.58  .91679 1.7914 135.8 20.5 90.3 171
2018 06 17 15  20 52 25.630   -19 06 49.50  .91646 1.7913 135.9 20.5 92.2 171
2018 06 17 16  20 52 27.047   -19 06 46.43  .91613 1.7912 135.9 20.5 94.2 171
2018 06 17 17  20 52 28.460   -19 06 43.37  .91580 1.7911 135.9 20.5 96.1 171
2018 06 17 18  20 52 29.870   -19 06 40.33  .91547 1.7910 136.0 20.5 98.1 171
2018 06 17 19  20 52 31.277   -19 06 37.30  .91513 1.7910 136.0 20.5  100 171
2018 06 17 20  20 52 32.681   -19 06 34.28  .91480 1.7909 136.0 20.5  102 171
2018 06 17 21  20 52 34.081   -19 06 31.28  .91447 1.7908 136.1 20.5  104 171
2018 06 17 22  20 52 35.477   -19 06 28.29  .91414 1.7907 136.1 20.5  106 171
2018 06 17 23  20 52 36.871   -19 06 25.31  .91381 1.7906 136.1 20.5  108 171
2018 06 18 00  20 52 38.261   -19 06 22.34  .91348 1.7905 136.2 20.5  111 171
2018 06 18 01  20 52 39.648   -19 06 19.39  .91315 1.7904 136.2 20.5  113 171
2018 06 18 02  20 52 41.031   -19 06 16.45  .91282 1.7904 136.2 20.5  115 171
2018 06 18 03  20 52 42.411   -19 06 13.52  .91250 1.7903 136.3 20.5  117 170
2018 06 18 04  20 52 43.788   -19 06 10.60  .91217 1.7902 136.3 20.5  119 170
2018 06 18 05  20 52 45.161   -19 06 07.70  .91184 1.7901 136.4 20.5  121 170
2018 06 18 06  20 52 46.531   -19 06 04.81  .91151 1.7900 136.4 20.5  124 170
2018 06 18 07  20 52 47.898   -19 06 01.93  .91118 1.7899 136.4 20.5  126 170
2018 06 18 08  20 52 49.261   -19 05 59.07  .91085 1.7899 136.5 20.5  128 170
2018 06 18 09  20 52 50.621   -19 05 56.22  .91053 1.7898 136.5 20.5  131 170
2018 06 18 10  20 52 51.977   -19 05 53.38  .91020 1.7897 136.5 20.5  133 170
2018 06 18 11  20 52 53.330   -19 05 50.56  .90987 1.7896 136.6 20.5  135 170
2018 06 18 12  20 52 54.680   -19 05 47.74  .90954 1.7895 136.6 20.5  138 170
2018 06 18 13  20 52 56.027   -19 05 44.94  .90922 1.7894 136.6 20.5  140 170
2018 06 18 14  20 52 57.370   -19 05 42.16  .90889 1.7893 136.7 20.5  142 170
2018 06 18 15  20 52 58.710   -19 05 39.38  .90856 1.7893 136.7 20.5  145 170
2018 06 18 16  20 53 00.046   -19 05 36.62  .90824 1.7892 136.7 20.5  147 170
2018 06 18 17  20 53 01.379   -19 05 33.88  .90791 1.7891 136.8 20.5  150 170
2018 06 18 18  20 53 02.709   -19 05 31.14  .90759 1.7890 136.8 20.5  152 170
2018 06 18 19  20 53 04.035   -19 05 28.42  .90726 1.7889 136.8 20.5  155 170
2018 06 18 20  20 53 05.358   -19 05 25.71  .90693 1.7888 136.9 20.5  157 170
2018 06 18 21  20 53 06.677   -19 05 23.01  .90661 1.7887 136.9 20.5  160 170
2018 06 18 22  20 53 07.994   -19 05 20.33  .90628 1.7887 136.9 20.5  162 170
2018 06 18 23  20 53 09.306   -19 05 17.66  .90596 1.7886 137.0 20.5  165 170
2018 06 19 00  20 53 10.616   -19 05 15.00  .90564 1.7885 137.0 20.5  167 170
2018 06 19 01  20 53 11.922   -19 05 12.36  .90531 1.7884 137.0 20.5  170 170
2018 06 19 02  20 53 13.225   -19 05 09.73  .90499 1.7883 137.1 20.5  173 170
2018 06 19 03  20 53 14.524   -19 05 07.11  .90466 1.7882 137.1 20.5  175 170
2018 06 19 04  20 53 15.820   -19 05 04.50  .90434 1.7882 137.1 20.5  178 170
2018 06 19 05  20 53 17.113   -19 05 01.91  .90402 1.7881 137.2 20.5  181 170
2018 06 19 06  20 53 18.402   -19 04 59.33  .90369 1.7880 137.2 20.5  184 170
2018 06 19 07  20 53 19.688   -19 04 56.76  .90337 1.7879 137.2 20.5  186 170
2018 06 19 08  20 53 20.970   -19 04 54.21  .90305 1.7878 137.3 20.5  189 170